KF5PJP Weather Reports


Display with metric or nautical units.
time (UTC)temp
F
wind
direction
speed
MPH
gust
MPH
rain 1hr
in
rain 24hr
in
rain mn
in
humidity
%
barometer
mb
20260831081932 80 256 0.0 0.0 0.00 0.00 0.00 66 1014.8
20260831080929 81 256 0.0 0.0 0.00 0.00 0.00 65 1014.8
20260831075947 81 256 0.0 0.0 0.00 0.00 0.00 64 1014.8
20260831074954 81 256 0.0 1.0 0.00 0.00 0.00 64 1014.8
20260831074508 81 256 0.0 1.0 0.00 0.00 0.00 63 1014.8
20260831073921 82 255 0.0 0.0 0.00 0.00 0.00 63 1014.8
20260831073505 82 255 0.0 1.0 0.00 0.00 0.00 63 1014.8
20260831072941 82 255 0.0 1.0 0.00 0.00 0.00 63 1014.7
20260831071953 82 255 0.0 0.0 0.00 0.00 0.00 62 1014.7
20260831070954 82 254 0.0 1.0 0.00 0.00 0.00 62 1014.7
20260831070516 83 259 0.0 3.0 0.00 0.00 0.00 61 1014.8
20260831065945 83 259 0.0 3.0 0.00 0.00 0.00 61 1014.8
20260831065445 83 263 0.0 1.0 0.00 0.00 0.00 61 1014.8
20260831064927 83 263 0.0 1.0 0.00 0.00 0.00 61 1014.9
20260831064432 83 263 0.0 1.0 0.00 0.00 0.00 60 1014.8
20260831063925 83 247 0.0 1.0 0.00 0.00 0.00 60 1014.9
20260831063449 83 247 0.0 1.0 0.00 0.00 0.00 59 1014.9
20260831062946 84 247 0.0 1.0 0.00 0.00 0.00 59 1014.9
20260831062431 84 247 0.0 1.0 0.00 0.00 0.00 59 1015.0
20260831061935 84 256 0.0 1.0 0.00 0.00 0.00 58 1015.0
20260831061452 84 262 0.0 0.0 0.00 0.00 0.00 58 1014.9
20260831060934 84 262 0.0 0.0 0.00 0.00 0.00 57 1014.9
20260831060421 84 263 0.0 0.0 0.00 0.00 0.00 57 1014.9
20260831055949 84 263 0.0 1.0 0.00 0.00 0.00 56 1014.8
20260831055437 85 273 0.0 1.0 0.00 0.00 0.00 56 1014.6
20260831054921 85 273 0.0 1.0 0.00 0.00 0.00 56 1014.6
20260831054422 85 273 0.0 1.0 0.00 0.00 0.00 56 1014.6
20260831053925 85 273 0.0 1.0 0.00 0.00 0.00 55 1014.5
20260831053426 85 281 0.0 1.0 0.00 0.00 0.00 55 1014.6
20260831052947 85 109 0.0 0.0 0.00 0.00 0.00 56 1014.6
20260831052447 85 281 0.0 0.0 0.00 0.00 0.00 55 1014.6
20260831051930 85 281 0.0 0.0 0.00 0.00 0.00 55 1014.5
20260831051431 85 282 0.0 0.0 0.00 0.00 0.00 55 1014.4
20260831050930 86 282 0.0 0.0 0.00 0.00 0.00 54 1014.4
20260831050427 86 282 0.0 0.0 0.00 0.00 0.00 54 1014.3
20260831045938 86 282 0.0 0.0 0.00 0.00 0.00 54 1014.3
20260831045522 86 282 0.0 0.0 0.00 0.00 0.00 54 1014.3
20260831044455 86 284 0.0 0.0 0.00 0.00 0.00 54 1014.4
20260831043511 86 284 0.0 0.0 0.00 0.00 0.00 54 1014.3
20260831042921 87 284 0.0 0.0 0.00 0.00 0.00 54 1014.3
20260831042444 86 284 0.0 0.0 0.00 0.00 0.00 54 1014.2
20260831041442 86 284 0.0 1.0 0.00 0.00 0.00 54 1014.1
20260831041011 86 284 0.0 1.0 0.00 0.00 0.00 55 1014.1
20260831035952 85 75 0.0 1.0 0.00 0.00 0.00 56 1014.1
20260831034954 85 75 0.0 1.0 0.00 0.00 0.00 58 1013.9
20260831034432 85 75 0.0 0.0 0.00 0.00 0.00 57 1013.8
20260831033958 85 75 0.0 0.0 0.00 0.00 0.00 57 1013.8
20260831032942 86 75 0.0 0.0 0.00 0.00 0.00 56 1013.5
20260831031441 86 75 0.0 0.0 0.00 0.00 0.00 54 1013.5
20260831031012 86 75 0.0 0.0 0.00 0.00 0.00 54 1013.4
20260831030541 87 75 0.0 0.0 0.00 0.00 0.00 53 1013.3
20260831025942 87 75 0.0 0.0 0.00 0.00 0.00 53 1013.3
20260831024953 87 75 0.0 0.0 0.00 0.00 0.00 52 1013.3
20260831023944 87 75 0.0 0.0 0.00 0.00 0.00 51 1013.2
20260831022931 88 75 0.0 0.0 0.00 0.00 0.00 50 1013.1
20260831022456 88 75 0.0 0.0 0.00 0.00 0.00 49 1013.1
20260831021447 88 75 0.0 0.0 0.00 0.00 0.00 49 1012.9
20260831021020 88 75 0.0 0.0 0.00 0.00 0.00 48 1012.8
20260831020440 88 75 0.0 0.0 0.00 0.00 0.00 47 1012.7
20260831015423 89 75 0.0 0.0 0.00 0.00 0.00 48 1012.6
20260831015014 89 75 0.0 0.0 0.00 0.00 0.00 47 1012.6
20260831014436 90 75 0.0 0.0 0.00 0.00 0.00 47 1012.6
20260831014017 90 75 0.0 0.0 0.00 0.00 0.00 46 1012.5
20260831013428 90 75 0.0 0.0 0.00 0.00 0.00 45 1012.5
20260831012947 91 75 0.0 0.0 0.00 0.00 0.00 45 1012.4
20260831012528 91 75 0.0 0.0 0.00 0.00 0.00 44 1012.4
20260831010935 92 75 0.0 0.0 0.00 0.00 0.00 42 1012.3
20260831005939 93 75 0.0 0.0 0.00 0.00 0.00 41 1012.3
20260831005427 94 75 0.0 0.0 0.00 0.00 0.00 40 1012.3
20260831004959 94 75 0.0 0.0 0.00 0.00 0.00 39 1012.2
20260831003940 96 75 0.0 0.0 0.00 0.00 0.00 38 1012.3
20260831002935 97 75 0.0 0.0 0.00 0.00 0.00 37 1012.3
20260831001935 99 75 0.0 1.0 0.00 0.00 0.00 36 1012.3
20260831001509 99 75 0.0 1.0 0.00 0.00 0.00 35 1012.2
20260831000949 99 75 0.0 0.0 0.00 0.00 0.00 35 1012.3
20260830235941 99 75 0.0 1.0 0.00 0.00 0.00 35 1012.3
20260830234925 99 75 0.0 2.0 0.00 0.00 0.00 35 1012.3
20260830233928 99 79 0.0 4.0 0.00 0.00 0.00 36 1012.3
20260830233509 99 92 0.0 2.0 0.00 0.00 0.00 35 1012.4
20260830232435 99 277 0.0 0.0 0.00 0.00 0.00 35 1012.4
20260830232007 100 277 0.0 0.0 0.00 0.00 0.00 35 1012.4
20260830230952 100 278 0.0 1.0 0.00 0.00 0.00 35 1012.4
20260830225947 101 279 1.0 2.0 0.00 0.00 0.00 34 1012.3
20260830224940 102 91 1.0 4.0 0.00 0.00 0.00 33 1012.4
20260830224513 102 95 1.0 4.0 0.00 0.00 0.00 33 1012.4
20260830223451 101 96 2.0 3.0 0.00 0.00 0.00 34 1012.5
20260830222449 102 281 0.0 3.0 0.00 0.00 0.00 33 1012.4
20260830221954 102 95 1.0 3.0 0.00 0.00 0.00 34 1012.5
20260830220948 102 140 0.0 3.0 0.00 0.00 0.00 33 1012.5
20260830220501 102 87 1.0 2.0 0.00 0.00 0.00 33 1012.6
20260830215500 102 267 0.0 3.0 0.00 0.00 0.00 34 1012.7
20260830214928 101 286 1.0 5.0 0.00 0.00 0.00 34 1012.7
20260830214504 100 120 2.0 5.0 0.00 0.00 0.00 35 1012.7
20260830214039 101 72 1.0 2.0 0.00 0.00 0.00 34 1012.8
20260830213435 102 260 1.0 2.0 0.00 0.00 0.00 34 1012.9
20260830213022 101 237 0.0 3.0 0.00 0.00 0.00 35 1012.9
20260830212423 101 283 1.0 3.0 0.00 0.00 0.00 35 1013.0
20260830212001 101 271 1.0 3.0 0.00 0.00 0.00 34 1013.0
20260830210950 102 241 0.0 2.0 0.00 0.00 0.00 34 1013.1
20260830210519 102 140 1.0 2.0 0.00 0.00 0.00 34 1013.1
20260830205933 102 289 1.0 3.0 0.00 0.00 0.00 34 1013.2
20260830204949 103 97 2.0 5.0 0.00 0.00 0.00 29 1013.3
20260830203950 104 65 1.0 2.0 0.00 0.00 0.00 32 1013.4
20260830203520 104 257 1.0 2.0 0.00 0.00 0.00 32 1013.5
20260830202948 105 280 0.0 2.0 0.00 0.00 0.00 32 1013.7
20260830202421 104 42 1.0 5.0 0.00 0.00 0.00 33 1013.8
20260830201938 103 10 1.0 5.0 0.00 0.00 0.00 32 1013.9
20260830201015 102 117 0.0 2.0 0.00 0.00 0.00 34 1014.0
20260830200433 101 265 1.0 3.0 0.00 0.00 0.00 33 1014.1
20260830195442 102 266 2.0 6.0 0.00 0.00 0.00 32 1014.3
20260830195001 103 259 2.0 6.0 0.00 0.00 0.00 32 1014.4
20260830193956 103 45 0.0 3.0 0.00 0.00 0.00 34 1014.5
20260830193508 102 161 0.0 2.0 0.00 0.00 0.00 35 1014.5
20260830193036 101 207 1.0 3.0 0.00 0.00 0.00 34 1014.6
20260830192449 101 304 1.0 3.0 0.00 0.00 0.00 34 1014.7
20260830191457 100 267 1.0 4.0 0.00 0.00 0.00 35 1014.9
20260830185946 98 87 1.0 5.0 0.00 0.00 0.00 40 1015.0
20260830185008 100 284 1.0 7.0 0.00 0.00 0.00 40 1015.1
20260830184429 99 89 2.0 7.0 0.00 0.00 0.00 41 1015.2
20260830183958 99 144 1.0 5.0 0.00 0.00 0.00 40 1015.2
20260830183531 100 102 2.0 5.0 0.00 0.00 0.00 39 1015.2
20260830182439 100 104 2.0 5.0 0.00 0.00 0.00 40 1015.4
20260830182011 100 111 1.0 6.0 0.00 0.00 0.00 40 1015.5
20260830181440 100 9 2.0 6.0 0.00 0.00 0.00 41 1015.6
20260830180432 100 87 0.0 4.0 0.00 0.00 0.00 43 1015.7
20260830180019 99 84 0.0 2.0 0.00 0.00 0.00 42 1015.8
20260830175421 98 100 0.0 5.0 0.00 0.00 0.00 44 1015.8
20260830175000 98 81 2.0 8.0 0.00 0.00 0.00 44 1015.9
20260830173954 97 119 2.0 5.0 0.00 0.00 0.00 43 1016.0
20260830173506 98 84 2.0 6.0 0.00 0.00 0.00 43 1016.1
20260830172921 98 97 1.0 6.0 0.00 0.00 0.00 43 1016.2
20260830172444 99 94 1.0 3.0 0.00 0.00 0.00 43 1016.3
20260830171506 98 81 1.0 3.0 0.00 0.00 0.00 43 1016.4
20260830170922 99 68 0.0 3.0 0.00 0.00 0.00 42 1016.4
20260830170448 98 78 1.0 3.0 0.00 0.00 0.00 42 1016.4
20260830165928 99 130 0.0 2.0 0.00 0.00 0.00 42 1016.6
20260830165506 98 69 0.0 2.0 0.00 0.00 0.00 41 1016.6
20260830164924 97 192 0.0 5.0 0.00 0.00 0.00 44 1016.8
20260830164447 97 95 1.0 5.0 0.00 0.00 0.00 44 1016.8
20260830164016 97 157 0.0 2.0 0.00 0.00 0.00 45 1016.8
20260830162951 96 84 1.0 4.0 0.00 0.00 0.00 47 1016.8
20260830161947 94 83 0.0 4.0 0.00 0.00 0.00 50 1016.7
20260830160939 94 98 2.0 5.0 0.00 0.00 0.00 51 1016.9
20260830155932 94 19 1.0 3.0 0.00 0.00 0.00 53 1016.8
20260830154940 92 82 1.0 5.0 0.00 0.00 0.00 55 1016.8
20260830153949 92 78 2.0 6.0 0.00 0.00 0.00 54 1016.9
20260830152939 91 86 0.0 1.0 0.00 0.00 0.00 57 1016.8
20260830151451 88 78 0.0 4.0 0.00 0.00 0.00 63 1016.7
20260830150444 87 97 0.0 3.0 0.00 0.00 0.00 66 1016.7
20260830145441 85 99 1.0 3.0 0.00 0.00 0.00 68 1016.8
20260830144449 85 92 1.0 3.0 0.00 0.00 0.00 71 1016.7
20260830143921 84 90 0.0 4.0 0.00 0.00 0.00 72 1016.8
20260830143452 84 74 1.0 4.0 0.00 0.00 0.00 72 1016.8
20260830142447 83 130 0.0 1.0 0.00 0.00 0.00 76 1016.8
20260830141440 82 101 1.0 5.0 0.00 0.00 0.00 76 1016.9
20260830141013 82 84 1.0 4.0 0.00 0.00 0.00 77 1016.8
20260830140440 82 80 0.0 4.0 0.00 0.00 0.00 78 1016.9
20260830135440 81 101 0.0 4.0 0.00 0.00 0.00 79 1016.8
20260830134448 81 89 1.0 4.0 0.00 0.00 0.00 80 1016.7
20260830134004 81 84 1.0 4.0 0.00 0.00 0.00 80 1016.7
20260830133432 80 71 0.0 4.0 0.00 0.00 0.00 81 1016.8
20260830132429 80 95 0.0 3.0 0.00 0.00 0.00 83 1016.7
20260830131452 79 76 0.0 2.0 0.00 0.00 0.00 85 1016.7
20260830130438 78 92 0.0 1.0 0.00 0.00 0.00 85 1016.6
20260830130013 78 92 0.0 1.0 0.00 0.00 0.00 85 1016.5
20260830125422 78 98 0.0 1.0 0.00 0.00 0.00 85 1016.4
20260830124934 77 98 0.0 1.0 0.00 0.00 0.00 85 1016.4
20260830124500 77 98 0.0 1.0 0.00 0.00 0.00 85 1016.4
20260830123943 77 98 0.0 1.0 0.00 0.00 0.00 85 1016.3
20260830122922 77 98 0.0 1.0 0.00 0.00 0.00 86 1016.1
20260830122002 76 98 0.0 0.0 0.00 0.00 0.00 85 1016.0
20260830121429 76 98 0.0 0.0 0.00 0.00 0.00 85 1016.0
20260830120437 76 98 0.0 1.0 0.00 0.00 0.00 84 1015.8
20260830115439 76 84 0.0 0.0 0.00 0.00 0.00 84 1015.7
20260830114420 76 84 0.0 0.0 0.00 0.00 0.00 83 1015.6
20260830113952 77 84 0.0 1.0 0.00 0.00 0.00 82 1015.6
20260830113424 77 83 0.0 1.0 0.00 0.00 0.00 82 1015.6
20260830112956 77 83 0.0 1.0 0.00 0.00 0.00 81 1015.6
20260830112427 77 92 0.0 0.0 0.00 0.00 0.00 81 1015.5
20260830111444 77 92 0.0 1.0 0.00 0.00 0.00 80 1015.5
20260830110445 77 93 0.0 2.0 0.00 0.00 0.00 80 1015.5
20260830110013 77 94 0.0 2.0 0.00 0.00 0.00 79 1015.5
20260830105422 77 65 0.0 0.0 0.00 0.00 0.00 79 1015.5
20260830105006 77 65 0.0 0.0 0.00 0.00 0.00 78 1015.4
20260830104434 77 65 0.0 1.0 0.00 0.00 0.00 78 1015.4
20260830103433 77 65 0.0 1.0 0.00 0.00 0.00 77 1015.3
20260830103007 77 65 0.0 1.0 0.00 0.00 0.00 77 1015.2
20260830102527 77 65 0.0 1.0 0.00 0.00 0.00 77 1015.2
20260830101927 77 65 0.0 0.0 0.00 0.00 0.00 76 1015.2
20260830101514 78 65 0.0 0.0 0.00 0.00 0.00 75 1015.2
20260830100916 78 65 0.0 1.0 0.00 0.00 0.00 75 1015.2
20260830100452 78 65 0.0 1.0 0.00 0.00 0.00 74 1015.2
20260830095419 78 17 0.0 0.0 0.00 0.00 0.00 73 1015.1
20260830095001 78 17 0.0 0.0 0.00 0.00 0.00 72 1015.1
20260830094519 78 16 0.0 0.0 0.00 0.00 0.00 72 1015.1
20260830093449 78 16 0.0 0.0 0.00 0.00 0.00 71 1015.1
20260830092452 79 17 0.0 2.0 0.00 0.00 0.00 70 1015.1
20260830092006 79 16 0.0 2.0 0.00 0.00 0.00 70 1015.1
20260830091427 79 269 0.0 0.0 0.00 0.00 0.00 69 1015.0
20260830091013 79 269 0.0 0.0 0.00 0.00 0.00 68 1015.0
20260830090429 79 269 0.0 0.0 0.00 0.00 0.00 67 1014.9
20260830085504 79 269 0.0 1.0 0.00 0.00 0.00 67 1014.9
20260830084438 79 269 0.0 0.0 0.00 0.00 0.00 66 1014.9
20260830083421 80 269 0.0 0.0 0.00 0.00 0.00 65 1014.9